FW3916 Weather Reports


time (UTC)temp
C
wind
direction
speed
KPH
gust
KPH
rain 1hr
cm
rain 24hr
cm
rain mn
cm
humidity
%
barometer
mb
20260906090546 23 0 0.0 6.4 0.00 0.00 0.00 92 1013.9
20260906090100 23 0 0.0 6.4 0.00 0.00 0.00 92 1013.9
20260906085546 23 8 0.0 6.4 0.00 0.00 0.00 93 1013.7
20260906085048 23 0 0.0 4.8 0.00 0.00 0.00 93 1013.8
20260906084606 23 0 0.0 6.4 0.00 0.00 0.00 93 1013.7
20260906084045 23 0 0.0 6.4 0.00 0.00 0.00 93 1013.6
20260906083547 23 273 0.0 3.2 0.00 0.00 0.00 94 1013.7
20260906083055 22 0 0.0 1.6 0.00 0.00 0.00 94 1013.8
20260906082546 22 333 0.0 3.2 0.00 0.00 0.00 94 1013.7
20260906082046 22 0 0.0 3.2 0.00 0.00 0.00 94 1013.5
20260906081553 22 0 0.0 3.2 0.00 0.00 0.00 94 1013.5
20260906081042 22 0 0.0 1.6 0.00 0.00 0.00 94 1013.5
20260906080545 22 0 0.0 3.2 0.00 0.00 0.00 94 1013.5
20260906080103 22 334 0.0 3.2 0.00 0.00 0.00 94 1013.6
20260906075543 22 0 0.0 3.2 0.00 0.00 0.00 94 1013.6
20260906075046 22 0 0.0 3.2 0.00 0.00 0.00 94 1013.6
20260906074600 22 0 0.0 3.2 0.00 0.00 0.00 94 1013.6
20260906074042 22 0 0.0 4.8 0.00 0.00 0.00 94 1013.5
20260906073546 22 0 0.0 4.8 0.00 0.00 0.00 93 1013.6
20260906073105 23 0 0.0 3.2 0.00 0.00 0.00 93 1013.7
20260906072546 23 0 0.0 1.6 0.00 0.00 0.00 93 1013.7
20260906072044 23 0 0.0 1.6 0.00 0.00 0.00 93 1013.8
20260906071602 23 0 0.0 1.6 0.00 0.00 0.00 92 1013.8
20260906071046 23 0 0.0 1.6 0.00 0.00 0.00 92 1014.0
20260906070547 23 0 0.0 1.6 0.00 0.00 0.00 91 1013.9
20260906070105 23 0 0.0 1.6 0.00 0.00 0.00 91 1013.8
20260906065547 23 0 0.0 1.6 0.00 0.00 0.00 91 1013.8
20260906065049 23 323 0.0 1.6 0.00 0.00 0.00 91 1013.8
20260906064556 23 0 0.0 1.6 0.00 0.00 0.00 90 1013.8
20260906064047 23 0 0.0 1.6 0.00 0.00 0.00 90 1013.8
20260906063543 23 323 0.0 1.6 0.00 0.00 0.00 90 1013.9
20260906063106 23 0 0.0 1.6 0.00 0.00 0.00 89 1013.9
20260906062546 23 0 0.0 1.6 0.00 0.00 0.00 89 1013.9
20260906062046 23 0 0.0 1.6 0.00 0.00 0.00 88 1013.9
20260906061607 23 0 0.0 1.6 0.00 0.00 0.00 88 1013.9
20260906061046 23 0 0.0 1.6 0.00 0.00 0.00 87 1014.0
20260906060545 24 0 0.0 3.2 0.00 0.00 0.00 87 1013.9
20260906060105 24 0 0.0 3.2 0.00 0.00 0.00 86 1013.9
20260906055541 24 287 0.0 3.2 0.00 0.00 0.00 86 1013.8
20260906055041 24 302 0.0 3.2 0.00 0.00 0.00 85 1013.8
20260906054557 24 0 0.0 3.2 0.00 0.00 0.00 84 1013.8
20260906054040 24 0 0.0 1.6 0.00 0.00 0.00 84 1013.7
20260906053541 25 0 0.0 4.8 0.00 0.00 0.00 84 1013.8
20260906053110 25 0 0.0 4.8 0.00 0.00 0.00 84 1013.8
20260906052544 25 0 0.0 4.8 0.00 0.00 0.00 83 1013.8
20260906052042 25 0 0.0 3.2 0.00 0.00 0.00 83 1013.8
20260906051605 25 0 0.0 3.2 0.00 0.00 0.00 83 1013.7
20260906051043 25 0 0.0 3.2 0.00 0.00 0.00 83 1013.6
20260906050546 25 0 0.0 3.2 0.00 0.00 0.00 83 1013.6
20260906050104 25 0 0.0 3.2 0.00 0.00 0.00 83 1013.6
20260906045543 25 0 0.0 3.2 0.00 0.00 0.00 82 1013.6
20260906045040 25 0 0.0 1.6 0.00 0.00 0.00 82 1013.5
20260906044555 25 359 0.0 1.6 0.00 0.00 0.00 81 1013.4
20260906044042 25 0 0.0 1.6 0.00 0.00 0.00 81 1013.4
20260906043542 25 0 0.0 1.6 0.00 0.00 0.00 80 1013.4
20260906043107 25 0 0.0 1.6 0.00 0.00 0.00 80 1013.3
20260906042541 25 0 0.0 1.6 0.00 0.00 0.00 79 1013.1
20260906042041 25 0 0.0 1.6 0.00 0.00 0.00 79 1013.1
20260906041557 25 0 0.0 1.6 0.00 0.00 0.00 78 1013.1
20260906041042 26 0 0.0 1.6 0.00 0.00 0.00 78 1013.0
20260906040545 26 0 0.0 1.6 0.00 0.00 0.00 77 1013.0
20260906040103 26 0 0.0 3.2 0.00 0.00 0.00 77 1013.1
20260906035541 26 0 0.0 4.8 0.00 0.00 0.00 76 1013.1
20260906035042 26 18 0.0 4.8 0.00 0.00 0.00 75 1013.1
20260906034555 26 277 0.0 4.8 0.00 0.00 0.00 75 1013.2
20260906034043 26 0 0.0 4.8 0.00 0.00 0.00 75 1013.2
20260906033545 26 273 0.0 4.8 0.00 0.00 0.00 75 1013.2
20260906033116 26 0 0.0 4.8 0.00 0.00 0.00 75 1013.1
20260906032543 26 0 0.0 4.8 0.00 0.00 0.00 75 1013.2
20260906032043 27 45 0.0 4.8 0.00 0.00 0.00 74 1013.1
20260906031600 27 48 0.0 3.2 0.00 0.00 0.00 74 1013.0
20260906031043 27 0 0.0 3.2 0.00 0.00 0.00 74 1013.0
20260906030540 27 0 0.0 1.6 0.00 0.00 0.00 73 1013.0
20260906030059 27 4 0.0 1.6 0.00 0.00 0.00 73 1012.9
20260906025545 27 4 0.0 1.6 0.00 0.00 0.00 73 1012.8
20260906025048 27 0 0.0 1.6 0.00 0.00 0.00 72 1012.7
20260906024558 27 9 0.0 3.2 0.00 0.00 0.00 72 1012.7
20260906024045 27 0 0.0 3.2 0.00 0.00 0.00 72 1012.7
20260906023547 27 0 0.0 3.2 0.00 0.00 0.00 72 1012.7
20260906023055 28 14 0.0 3.2 0.00 0.00 0.00 71 1012.6
20260906022545 28 14 0.0 3.2 0.00 0.00 0.00 71 1012.5
20260906022047 28 0 0.0 4.8 0.00 0.00 0.00 70 1012.3
20260906021552 28 0 0.0 4.8 0.00 0.00 0.00 71 1012.3
20260906021043 28 23 0.0 4.8 0.00 0.00 0.00 70 1012.3
20260906020543 28 358 1.6 4.8 0.00 0.00 0.00 70 1012.4
20260906020109 28 17 0.0 3.2 0.00 0.00 0.00 70 1012.4
20260906015544 28 26 0.0 4.8 0.00 0.00 0.00 71 1012.4
20260906015043 28 9 0.0 4.8 0.00 0.00 0.00 72 1012.3
20260906014606 28 0 0.0 4.8 0.00 0.00 0.00 75 1012.2
20260906014043 28 0 0.0 4.8 0.00 0.00 0.00 77 1012.1
20260906013547 28 0 0.0 0.0 0.00 0.00 0.00 77 1011.8
20260906013106 28 0 0.0 0.0 0.00 0.00 0.00 76 1011.7
20260906012547 28 0 0.0 0.0 0.00 0.00 0.00 75 1011.5
20260906012044 28 0 0.0 0.0 0.00 0.00 0.00 74 1011.5
20260906011602 28 0 0.0 0.0 0.00 0.00 0.00 74 1011.5
20260906011042 28 0 0.0 0.0 0.00 0.00 0.00 73 1011.4
20260906010542 28 0 0.0 1.6 0.00 0.00 0.00 72 1011.4
20260906010057 29 0 0.0 1.6 0.00 0.00 0.00 71 1011.2
20260906005543 29 256 0.0 1.6 0.00 0.00 0.00 70 1011.1
20260906005043 30 0 0.0 1.6 0.00 0.00 0.00 70 1011.1
20260906004556 30 0 0.0 1.6 0.00 0.00 0.00 69 1011.2
20260906004045 30 0 0.0 1.6 0.00 0.00 0.00 68 1011.2
20260906003543 30 0 0.0 1.6 0.00 0.00 0.00 68 1011.1
20260906003057 30 0 0.0 1.6 0.00 0.00 0.00 65 1011.2
20260906002545 31 0 0.0 1.6 0.00 0.00 0.00 64 1011.4
20260906002043 31 0 0.0 1.6 0.00 0.00 0.00 63 1011.3
20260906001553 31 0 0.0 1.6 0.00 0.00 0.00 63 1011.3
20260906001045 31 0 0.0 0.0 0.00 0.00 0.00 62 1011.4
20260906000545 31 0 0.0 1.6 0.00 0.00 0.00 61 1011.5
20260906000107 31 0 0.0 1.6 0.00 0.00 0.00 60 1011.6
20260905235543 31 0 0.0 1.6 0.00 0.00 0.00 59 1011.6
20260905235043 32 0 0.0 1.6 0.00 0.00 0.00 58 1011.7
20260905234557 32 0 0.0 1.6 0.00 0.00 0.00 57 1011.4
20260905234042 32 0 0.0 1.6 0.00 0.00 0.00 57 1011.4
20260905233545 32 0 0.0 1.6 0.00 0.00 0.00 56 1011.5
20260905233053 32 0 0.0 1.6 0.00 0.00 0.00 55 1011.4
20260905232544 32 0 0.0 3.2 0.00 0.00 0.00 55 1011.5
20260905232043 33 0 0.0 3.2 0.00 0.00 0.00 54 1011.4
20260905231555 33 0 0.0 3.2 0.00 0.00 0.00 54 1011.4
20260905231044 33 0 0.0 6.4 0.00 0.00 0.00 54 1011.4
20260905230543 33 0 0.0 6.4 0.00 0.00 0.00 52 1011.1
20260905230105 33 0 1.6 6.4 0.00 0.00 0.00 51 1011.1
20260905225544 34 281 0.0 4.8 0.00 0.00 0.00 50 1011.1
20260905225043 35 274 1.6 4.8 0.00 0.00 0.00 48 1011.0
20260905224556 35 265 0.0 3.2 0.00 0.00 0.00 48 1011.1
20260905224043 35 325 0.0 4.8 0.00 0.00 0.00 48 1011.1
20260905223548 35 290 0.0 4.8 0.00 0.00 0.00 47 1011.1
20260905223055 35 9 0.0 4.8 0.00 0.00 0.00 49 1011.0
20260905222544 35 0 0.0 4.8 0.00 0.00 0.00 48 1011.1
20260905222047 35 0 1.6 4.8 0.00 0.00 0.00 47 1011.0
20260905221604 35 266 0.0 4.8 0.00 0.00 0.00 48 1011.0
20260905221043 35 0 0.0 4.8 0.00 0.00 0.00 47 1010.9
20260905220543 35 30 1.6 4.8 0.00 0.00 0.00 47 1010.8
20260905220105 35 24 1.6 8.0 0.00 0.00 0.00 48 1010.9
20260905215543 35 320 1.6 8.0 0.00 0.00 0.00 46 1010.8
20260905215042 35 0 0.0 8.0 0.00 0.00 0.00 46 1011.0
20260905214602 35 0 1.6 4.8 0.00 0.00 0.00 46 1011.1
20260905214045 36 245 1.6 4.8 0.00 0.00 0.00 45 1011.1
20260905213543 36 255 0.0 6.4 0.00 0.00 0.00 44 1011.1
20260905213053 36 1 1.6 6.4 0.00 0.00 0.00 45 1010.9
20260905212545 36 0 1.6 6.4 0.00 0.00 0.00 43 1011.0
20260905212044 36 27 1.6 4.8 0.00 0.00 0.00 44 1011.0
20260905211602 36 0 1.6 4.8 0.00 0.00 0.00 45 1011.0
20260905211043 36 20 1.6 4.8 0.00 0.00 0.00 43 1010.9
20260905210542 36 0 0.0 6.4 0.00 0.00 0.00 45 1011.1
20260905210115 36 0 0.0 6.4 0.00 0.00 0.00 45 1011.1
20260905205542 36 36 1.6 4.8 0.00 0.00 0.00 43 1011.3
20260905205046 36 0 0.0 4.8 0.00 0.00 0.00 45 1011.5
20260905204606 35 302 1.6 6.4 0.00 0.00 0.00 45 1011.5
20260905204044 35 291 1.6 6.4 0.00 0.00 0.00 44 1011.7
20260905203543 35 261 0.0 6.4 0.00 0.00 0.00 43 1011.7
20260905203058 35 37 1.6 6.4 0.00 0.00 0.00 46 1011.9
20260905202543 35 0 1.6 6.4 0.00 0.00 0.00 43 1011.8
20260905202042 36 281 1.6 6.4 0.00 0.00 0.00 42 1011.9
20260905201607 36 65 1.6 6.4 0.00 0.00 0.00 42 1011.9
20260905201044 36 37 1.6 6.4 0.00 0.00 0.00 44 1011.9
20260905200542 35 224 0.0 6.4 0.00 0.00 0.00 46 1012.0
20260905200117 35 1 1.6 6.4 0.00 0.00 0.00 43 1012.0
20260905195544 36 252 1.6 6.4 0.00 0.00 0.00 42 1012.0
20260905195043 36 0 1.6 8.0 0.00 0.00 0.00 45 1011.9
20260905194611 36 136 1.6 8.0 0.00 0.00 0.00 44 1012.0
20260905194043 36 338 0.0 8.0 0.00 0.00 0.00 45 1012.0
20260905193544 35 0 1.6 8.0 0.00 0.00 0.00 44 1012.2
20260905193103 35 40 1.6 6.4 0.00 0.00 0.00 43 1012.1
20260905192543 35 0 1.6 8.0 0.00 0.00 0.00 46 1012.2
20260905192049 35 293 3.2 8.0 0.00 0.00 0.00 45 1012.3
20260905191558 35 69 1.6 4.8 0.00 0.00 0.00 43 1012.3
20260905191044 35 214 1.6 4.8 0.00 0.00 0.00 45 1012.4
20260905190544 35 60 1.6 6.4 0.00 0.00 0.00 46 1012.6
20260905190109 34 29 3.2 8.0 0.00 0.00 0.00 50 1012.8
20260905185543 34 123 3.2 8.0 0.00 0.00 0.00 49 1012.7
20260905185043 34 0 1.6 8.0 0.00 0.00 0.00 47 1012.9
20260905184621 34 127 3.2 8.0 0.00 0.00 0.00 47 1012.9
20260905184043 34 309 1.6 6.4 0.00 0.00 0.00 47 1013.0
20260905183543 34 110 1.6 9.7 0.00 0.00 0.00 47 1013.0
20260905183108 34 156 1.6 9.7 0.00 0.00 0.00 45 1013.3
20260905182543 33 102 1.6 9.7 0.00 0.00 0.00 46 1013.3
20260905182043 33 330 1.6 8.0 0.00 0.00 0.00 46 1013.3
20260905181607 33 265 1.6 6.4 0.00 0.00 0.00 47 1013.4
20260905181046 33 149 1.6 8.0 0.00 0.00 0.00 47 1013.3
20260905180544 33 259 1.6 8.0 0.00 0.00 0.00 46 1013.5
20260905180103 33 218 1.6 6.4 0.00 0.00 0.00 47 1013.4
20260905175543 33 251 0.0 6.4 0.00 0.00 0.00 47 1013.5
20260905175043 33 0 1.6 6.4 0.00 0.00 0.00 46 1013.5
20260905174556 33 92 1.6 8.0 0.00 0.00 0.00 49 1013.5
20260905174042 32 314 0.0 9.7 0.00 0.00 0.00 49 1013.5
20260905173546 32 139 3.2 9.7 0.00 0.00 0.00 48 1013.5
20260905173116 32 172 1.6 11.3 0.00 0.00 0.00 49 1013.6
20260905172543 32 203 1.6 11.3 0.00 0.00 0.00 51 1013.7
20260905172043 32 239 4.8 11.3 0.00 0.00 0.00 50 1013.7
20260905171624 32 267 4.8 9.7 0.00 0.00 0.00 50 1013.7
20260905171043 32 127 3.2 9.7 0.00 0.00 0.00 51 1013.9
20260905170544 32 214 1.6 11.3 0.00 0.00 0.00 50 1013.9
20260905165544 31 358 1.6 11.3 0.00 0.00 0.00 50 1014.3
20260905165043 31 0 3.2 9.7 0.00 0.00 0.00 52 1014.4
20260905164555 31 193 1.6 8.0 0.00 0.00 0.00 51 1014.6
20260905164044 31 96 3.2 16.1 0.00 0.00 0.00 50 1014.5
20260905163546 31 335 1.6 16.1 0.00 0.00 0.00 50 1014.5
20260905163102 31 17 6.4 16.1 0.00 0.00 0.00 51 1014.5
20260905162543 31 199 6.4 9.7 0.00 0.00 0.00 51 1014.4
20260905162043 31 153 1.6 8.0 0.00 0.00 0.00 51 1014.2
20260905161551 31 212 3.2 8.0 0.00 0.00 0.00 51 1014.3
20260905161045 30 138 3.2 9.7 0.00 0.00 0.00 52 1014.2
20260905160546 30 0 1.6 9.7 0.00 0.00 0.00 54 1014.2
20260905155544 30 212 1.6 9.7 0.00 0.00 0.00 52 1014.4
20260905155043 30 342 3.2 12.9 0.00 0.00 0.00 52 1014.9
20260905154614 29 1 3.2 12.9 0.00 0.00 0.00 53 1015.0
20260905154043 29 257 3.2 11.3 0.00 0.00 0.00 53 1015.1
20260905153545 29 258 1.6 9.7 0.00 0.00 0.00 55 1014.9
20260905153052 29 243 3.2 9.7 0.00 0.00 0.00 54 1014.9
20260905152543 29 15 3.2 9.7 0.00 0.00 0.00 54 1014.9
20260905152047 29 274 3.2 6.4 0.00 0.00 0.00 55 1014.9
20260905151605 28 340 1.6 12.9 0.00 0.00 0.00 55 1014.8
20260905151043 28 88 3.2 12.9 0.00 0.00 0.00 55 1014.9
20260905150542 28 210 4.8 12.9 0.00 0.00 0.00 53 1014.9
20260905150054 28 155 3.2 8.0 0.00 0.00 0.00 57 1014.7
20260905145543 28 98 1.6 9.7 0.00 0.00 0.00 58 1014.7
20260905145042 28 144 1.6 9.7 0.00 0.00 0.00 60 1014.8
20260905144603 28 204 3.2 12.9 0.00 0.00 0.00 60 1014.9
20260905144044 28 0 3.2 12.9 0.00 0.00 0.00 60 1015.0
20260905143544 28 195 1.6 9.7 0.00 0.00 0.00 59 1015.2
20260905143054 27 17 3.2 8.0 0.00 0.00 0.00 60 1015.3
20260905142542 27 34 3.2 14.5 0.00 0.00 0.00 61 1015.4
20260905142128 27 288 3.2 14.5 0.00 0.00 0.00 61 1015.2
20260905141603 27 293 3.2 12.9 0.00 0.00 0.00 62 1015.2
20260905141044 27 120 4.8 12.9 0.00 0.00 0.00 61 1015.1
20260905140545 27 219 3.2 9.7 0.00 0.00 0.00 63 1015.2
20260905140105 27 314 3.2 9.7 0.00 0.00 0.00 63 1015.4
20260905135545 27 25 3.2 12.9 0.00 0.00 0.00 64 1015.4
20260905135042 26 275 3.2 12.9 0.00 0.00 0.00 65 1015.3
20260905134601 26 191 3.2 12.9 0.00 0.00 0.00 67 1015.4
20260905134044 26 274 3.2 12.9 0.00 0.00 0.00 70 1015.5
20260905133546 26 269 3.2 11.3 0.00 0.00 0.00 72 1015.3
20260905133056 25 189 1.6 16.1 0.00 0.00 0.00 74 1015.3
20260905132544 25 321 4.8 16.1 0.00 0.00 0.00 76 1015.2
20260905132044 25 7 3.2 9.7 0.00 0.00 0.00 77 1015.3
20260905131610 25 94 1.6 11.3 0.00 0.00 0.00 78 1015.4
20260905131046 25 39 1.6 16.1 0.00 0.00 0.00 79 1015.4
20260905130544 25 33 4.8 16.1 0.00 0.00 0.00 79 1015.3
20260905125543 25 0 0.0 0.0 0.00 0.00 0.00 85 1015.3
20260905125043 24 0 0.0 0.0 0.00 0.00 0.00 90 1015.3
20260905124601 24 0 0.0 0.0 0.00 0.00 0.00 94 1015.3
20260905124042 23 0 0.0 0.0 0.00 0.00 0.00 96 1015.2
20260905123543 23 0 0.0 0.0 0.00 0.00 0.00 97 1015.0
20260905123101 23 0 0.0 0.0 0.00 0.00 0.00 98 1015.1
20260905122544 23 0 0.0 0.0 0.00 0.00 0.00 98 1015.1
20260905122043 23 0 0.0 0.0 0.00 0.00 0.00 98 1015.0
20260905121600 23 0 0.0 0.0 0.00 0.00 0.00 98 1014.3
20260905121043 22 0 0.0 0.0 0.00 0.00 0.00 98 1014.1
20260905120543 22 0 0.0 0.0 0.00 0.00 0.00 98 1014.1
20260905120104 22 0 0.0 0.0 0.00 0.00 0.00 98 1014.2
20260905115546 22 0 0.0 0.0 0.00 0.00 0.00 98 1014.1
20260905115043 22 0 0.0 0.0 0.00 0.00 0.00 98 1013.9
20260905114602 22 0 0.0 0.0 0.00 0.00 0.00 97 1014.0
20260905114043 22 0 0.0 0.0 0.00 0.00 0.00 97 1013.9
20260905113543 22 0 0.0 0.0 0.00 0.00 0.00 97 1013.9
20260905113058 22 0 0.0 0.0 0.00 0.00 0.00 97 1013.9
20260905112544 22 0 0.0 0.0 0.00 0.00 0.00 97 1013.7
20260905112043 22 0 0.0 0.0 0.00 0.00 0.00 97 1013.7
20260905111642 22 0 0.0 0.0 0.00 0.00 0.00 97 1013.6
20260905111044 23 0 0.0 0.0 0.00 0.00 0.00 97 1013.5
20260905110541 23 0 0.0 0.0 0.00 0.00 0.00 97 1013.4
20260905110051 23 0 0.0 0.0 0.00 0.00 0.00 97 1013.4
20260905105544 23 0 0.0 0.0 0.00 0.00 0.00 97 1013.4
20260905105044 23 0 0.0 0.0 0.00 0.00 0.00 97 1013.5
20260905104605 23 0 0.0 0.0 0.00 0.00 0.00 97 1013.6
20260905104046 23 0 0.0 0.0 0.00 0.00 0.00 97 1013.6
20260905103543 23 0 0.0 0.0 0.00 0.00 0.00 97 1013.6
20260905103105 23 0 0.0 0.0 0.00 0.00 0.00 97 1013.7
20260905102546 23 0 0.0 0.0 0.00 0.00 0.00 97 1013.7
20260905102044 23 0 0.0 0.0 0.00 0.00 0.00 97 1013.7
20260905101606 23 0 0.0 0.0 0.00 0.00 0.00 97 1013.7
20260905101043 23 0 0.0 0.0 0.00 0.00 0.00 97 1013.7
20260905100544 23 0 0.0 0.0 0.00 0.00 0.00 97 1013.7
20260905100100 23 0 0.0 0.0 0.00 0.00 0.00 97 1013.6
20260905095543 23 0 0.0 0.0 0.00 0.00 0.00 97 1013.6
20260905095043 23 0 0.0 0.0 0.00 0.00 0.00 97 1013.6
20260905094607 23 0 0.0 0.0 0.00 0.00 0.00 97 1013.5
20260905094044 23 0 0.0 0.0 0.00 0.00 0.00 97 1013.5
20260905093545 23 0 0.0 0.0 0.00 0.00 0.00 97 1013.4
20260905093107 23 0 0.0 0.0 0.00 0.00 0.00 97 1013.5
20260905092545 23 0 0.0 0.0 0.00 0.00 0.00 97 1013.5
20260905092044 23 0 0.0 0.0 0.00 0.00 0.00 96 1013.4
20260905091559 23 0 0.0 0.0 0.00 0.00 0.00 96 1013.4
20260905091044 23 0 0.0 0.0 0.00 0.00 0.00 96 1013.4